If you wish to contribute or participate in the discussions about articles you are invited to join SKYbrary as a registered user

 Actions

Arad International Airport

From SKYbrary Wiki

LRAR
Airport
ICAO: LRAR – IATA: ARW
Summary
Name Arad International Airport
Region
Territory Romania RO.gif
Location , Arad
Serving Arad
Elevation 107.29 m
352 ft
352 ft107.29 m
Type medium airport
Coordinates 46° 10' 35.58" N, 21° 15' 43.28" E
Runways
Designator Length Width Surface ROPS
9/27 2000 m6,561.68 ft
45 m147.638 ft
CON /


METAR
Observation LRAR 182100Z 10004KT CAVOK 22/20 Q1015
Station Arad
Date/Time 18 June 2019 21:00:00
Wind direction 100°
Wind speed 04 kts
Lowest cloud amount clouds and visibility OK
Temperature 22°C
Dew point 20°C
Humidity 88%
QNH 1015 hPa
Weather condition n/a